Вернуться в каталог

STARLINK-34949

АктивенСвязьSSO
NORAD 65175·PAYLOAD·🇺🇸 United States

Запущен Aug 14, 2025 с Vandenberg Space Force Base

Loading…

Ближайшие Пролёты (ближайшие 24 часа)

TLE

СвежийSource: CelesTrak SupGP

Эпоха: Sep 15, 2026, 03:54 UTC

1 65175C 25175B   26258.16298611 -.00022046  00000+0 -68407-3 0  2582
2 65175  97.2846 127.2521 0001910  96.1690  37.6375 15.33463643    14

Отслеживайте STARLINK-34949 в реальном времени с AllMySat

Download on the App Store